Year,Month,Day,Hour,Minute,Value (Times are PST for temperature in C)
2008,04,26,00,00,3.50
2008,04,26,00,01,3.50
2008,04,26,00,02,3.50
2008,04,26,00,03,3.40
2008,04,26,00,04,3.40
2008,04,26,00,05,3.40
2008,04,26,00,06,3.40
2008,04,26,00,07,3.40
2008,04,26,00,08,3.40
2008,04,26,00,09,3.30
2008,04,26,00,10,3.30
2008,04,26,00,11,3.30
2008,04,26,00,12,3.30
2008,04,26,00,13,3.30
2008,04,26,00,14,3.30
2008,04,26,00,15,3.20
2008,04,26,00,16,3.20
2008,04,26,00,17,3.20
2008,04,26,00,18,3.10
2008,04,26,00,19,3.10
2008,04,26,00,20,3.10
2008,04,26,00,21,3.10
2008,04,26,00,22,3.00
2008,04,26,00,23,2.90
2008,04,26,00,24,2.90
2008,04,26,00,25,2.90
2008,04,26,00,26,2.90
2008,04,26,00,27,2.80
2008,04,26,00,28,2.80
2008,04,26,00,29,2.80
2008,04,26,00,30,2.70
2008,04,26,00,31,2.70
2008,04,26,00,32,2.70
2008,04,26,00,33,2.70
2008,04,26,00,34,2.70
2008,04,26,00,35,2.70
2008,04,26,00,36,2.70
2008,04,26,00,37,2.70
2008,04,26,00,38,2.70
2008,04,26,00,39,2.70
2008,04,26,00,40,2.50
2008,04,26,00,41,2.50
2008,04,26,00,42,2.50
2008,04,26,00,43,2.40
2008,04,26,00,44,2.40
2008,04,26,00,45,2.40
2008,04,26,00,46,2.30
2008,04,26,00,47,2.30
2008,04,26,00,48,2.30
2008,04,26,00,49,2.30
2008,04,26,00,50,2.20
2008,04,26,00,51,2.20
2008,04,26,00,52,2.20
2008,04,26,00,53,2.20
2008,04,26,00,54,2.20
2008,04,26,00,55,2.20
2008,04,26,00,56,2.20
2008,04,26,00,57,2.20
2008,04,26,00,58,2.20
2008,04,26,00,59,2.20
2008,04,26,01,00,2.20
2008,04,26,01,01,2.20
2008,04,26,01,02,2.20
2008,04,26,01,03,2.20
2008,04,26,02,11,1.40
2008,04,26,02,12,1.40
2008,04,26,02,13,1.40
2008,04,26,02,14,1.40
2008,04,26,02,15,1.40
2008,04,26,02,16,1.40
2008,04,26,02,17,1.30
2008,04,26,02,18,1.30
2008,04,26,02,19,1.30
2008,04,26,02,20,1.30
2008,04,26,02,21,1.30
2008,04,26,02,22,1.30
2008,04,26,02,23,1.30
2008,04,26,02,24,1.30
2008,04,26,02,25,1.30
2008,04,26,02,26,1.30
2008,04,26,02,27,1.30
2008,04,26,02,28,1.30
2008,04,26,02,29,1.30
2008,04,26,02,30,1.20
2008,04,26,02,31,1.20
2008,04,26,02,32,1.20
2008,04,26,02,33,1.20
2008,04,26,02,34,1.20
2008,04,26,02,35,1.20
2008,04,26,02,36,1.20
2008,04,26,02,37,1.20
2008,04,26,02,38,1.20
2008,04,26,02,39,1.20
2008,04,26,02,40,1.10
2008,04,26,02,41,1.10
2008,04,26,02,42,1.10
2008,04,26,02,43,1.10
2008,04,26,02,44,1.10
2008,04,26,02,45,1.10
2008,04,26,02,46,1.10
2008,04,26,02,47,1.00
2008,04,26,02,48,1.00
2008,04,26,02,49,1.00
2008,04,26,02,50,1.00
2008,04,26,02,51,1.00
2008,04,26,02,52,1.00
2008,04,26,02,53,1.00
2008,04,26,02,54,1.00
2008,04,26,02,55,1.00
2008,04,26,02,56,1.00
2008,04,26,02,57,1.00
2008,04,26,02,58,1.00
2008,04,26,02,59,0.90
2008,04,26,03,00,0.90
2008,04,26,03,01,0.90
2008,04,26,03,02,0.90
2008,04,26,03,03,0.90
2008,04,26,03,04,0.90
2008,04,26,03,05,0.90
2008,04,26,03,06,0.90
2008,04,26,03,07,0.90
2008,04,26,03,08,0.90
2008,04,26,03,09,0.90
2008,04,26,03,10,0.90
2008,04,26,03,11,0.90
2008,04,26,03,12,0.90
2008,04,26,03,13,0.90
2008,04,26,03,14,1.00
2008,04,26,03,15,1.00
2008,04,26,03,16,1.00
2008,04,26,03,17,1.00
2008,04,26,03,18,1.00
2008,04,26,03,19,1.00
2008,04,26,03,20,1.00
2008,04,26,03,21,1.00
2008,04,26,03,22,1.00
2008,04,26,03,23,1.00
2008,04,26,03,24,1.00
2008,04,26,03,25,1.00
2008,04,26,03,26,1.00
2008,04,26,03,27,1.00
2008,04,26,03,28,1.00
2008,04,26,03,29,1.10
2008,04,26,03,30,1.00
2008,04,26,03,31,1.00
2008,04,26,03,32,1.00
2008,04,26,03,33,1.00
2008,04,26,03,34,1.00
2008,04,26,03,35,1.00
2008,04,26,03,36,1.00
2008,04,26,03,37,1.00
2008,04,26,03,38,1.00
2008,04,26,03,39,1.00
2008,04,26,03,40,1.00
2008,04,26,03,41,1.00
2008,04,26,03,42,1.00
2008,04,26,03,43,1.00
2008,04,26,03,44,1.00
2008,04,26,03,45,1.00
2008,04,26,03,46,1.00
2008,04,26,03,47,1.00
2008,04,26,03,48,1.00
2008,04,26,03,49,1.00
2008,04,26,03,50,1.00
2008,04,26,03,51,1.00
2008,04,26,03,52,1.00
2008,04,26,03,53,1.00
2008,04,26,03,54,1.00
2008,04,26,03,55,1.00
2008,04,26,03,56,1.00
2008,04,26,03,57,1.00
2008,04,26,03,58,1.00
2008,04,26,03,59,1.00
2008,04,26,04,00,1.00
2008,04,26,04,01,1.10
2008,04,26,04,02,1.10
2008,04,26,04,03,1.10
2008,04,26,04,04,1.10
2008,04,26,04,05,1.10
2008,04,26,04,06,1.10
2008,04,26,04,07,1.10
2008,04,26,04,08,1.20
2008,04,26,04,09,1.20
2008,04,26,04,10,1.20
2008,04,26,04,11,1.20
2008,04,26,04,12,1.20
2008,04,26,04,13,1.20
2008,04,26,04,14,1.20
2008,04,26,04,15,1.20
2008,04,26,04,16,1.20
2008,04,26,04,17,1.20
2008,04,26,04,18,1.20
2008,04,26,04,19,1.20
2008,04,26,04,20,1.20
2008,04,26,04,21,1.20
2008,04,26,04,22,1.30
2008,04,26,04,23,1.30
2008,04,26,04,24,1.30
2008,04,26,04,25,1.30
2008,04,26,04,26,1.30
2008,04,26,04,27,1.30
2008,04,26,04,28,1.20
2008,04,26,04,29,1.20
2008,04,26,04,30,1.20
2008,04,26,04,31,1.20
2008,04,26,04,32,1.20
2008,04,26,04,33,1.10
2008,04,26,04,34,1.10
2008,04,26,04,35,1.10
2008,04,26,04,36,1.10
2008,04,26,04,37,1.10
2008,04,26,04,38,1.10
2008,04,26,04,39,1.10
2008,04,26,04,40,1.10
2008,04,26,04,41,1.10
2008,04,26,04,42,1.10
2008,04,26,04,43,1.10
2008,04,26,04,44,1.10
2008,04,26,04,45,1.10
2008,04,26,04,46,1.10
2008,04,26,04,47,1.10
2008,04,26,04,48,1.10
2008,04,26,04,49,1.00
2008,04,26,04,50,1.00
2008,04,26,04,51,1.00
2008,04,26,04,52,1.00
2008,04,26,04,53,1.00
2008,04,26,04,54,1.00
2008,04,26,04,55,0.90
2008,04,26,04,56,0.90
2008,04,26,04,57,0.90
2008,04,26,04,58,0.90
2008,04,26,04,59,0.90
2008,04,26,05,00,0.90
2008,04,26,05,01,0.90
2008,04,26,05,02,0.90
2008,04,26,05,03,0.90
2008,04,26,05,04,0.90
2008,04,26,05,05,0.90
2008,04,26,05,06,0.70
2008,04,26,05,07,0.70
2008,04,26,05,08,0.70
2008,04,26,05,09,0.70
2008,04,26,05,10,0.70
2008,04,26,05,11,0.70
2008,04,26,05,12,0.70
2008,04,26,05,13,0.70
2008,04,26,05,14,0.70
2008,04,26,05,15,0.70
2008,04,26,05,16,0.60
2008,04,26,05,17,0.60
2008,04,26,05,18,0.60
2008,04,26,05,19,0.60
2008,04,26,05,20,0.60
2008,04,26,05,21,0.60
2008,04,26,05,22,0.60
2008,04,26,05,23,0.60
2008,04,26,05,24,0.60
2008,04,26,05,25,0.60
2008,04,26,05,26,0.60
2008,04,26,05,27,0.60
2008,04,26,05,28,0.60
2008,04,26,05,29,0.60
2008,04,26,05,30,0.60
2008,04,26,05,31,0.70
2008,04,26,05,32,0.70
2008,04,26,05,33,0.70
2008,04,26,05,34,0.70
2008,04,26,05,35,0.60
2008,04,26,05,36,0.60
2008,04,26,05,37,0.60
2008,04,26,05,38,0.60
2008,04,26,05,39,0.60
2008,04,26,05,40,0.60
2008,04,26,05,41,0.50
2008,04,26,05,42,0.50
2008,04,26,05,43,0.50
2008,04,26,05,44,0.50
2008,04,26,05,45,0.50
2008,04,26,05,46,0.50
2008,04,26,05,47,0.50
2008,04,26,05,48,0.60
2008,04,26,05,49,0.60
2008,04,26,05,50,0.60
2008,04,26,05,51,0.60
2008,04,26,05,52,0.60
2008,04,26,05,53,0.60
2008,04,26,05,54,0.60
2008,04,26,05,55,0.60
2008,04,26,05,56,0.60
2008,04,26,05,57,0.60
2008,04,26,05,58,0.60
2008,04,26,05,59,0.60
2008,04,26,06,00,0.50
2008,04,26,06,01,0.50
2008,04,26,06,02,0.50
2008,04,26,06,03,0.50
2008,04,26,06,04,0.50
2008,04,26,06,05,0.40
2008,04,26,06,06,0.40
2008,04,26,06,07,0.40
2008,04,26,06,08,0.40
2008,04,26,06,09,0.40
2008,04,26,06,10,0.40
2008,04,26,06,11,0.40
2008,04,26,06,12,0.40
2008,04,26,06,13,0.40
2008,04,26,06,14,0.40
2008,04,26,06,15,0.40
2008,04,26,06,16,0.40
2008,04,26,06,17,0.40
2008,04,26,06,18,0.40
2008,04,26,06,19,0.40
2008,04,26,06,20,0.40
2008,04,26,06,21,0.40
2008,04,26,06,22,0.40
2008,04,26,06,23,0.40
2008,04,26,06,24,0.40
2008,04,26,06,25,0.50
2008,04,26,06,26,0.50
2008,04,26,06,27,0.50
2008,04,26,06,28,0.50
2008,04,26,06,29,0.50
2008,04,26,06,30,0.50
2008,04,26,06,31,0.50
2008,04,26,06,32,0.50
2008,04,26,06,33,0.50
2008,04,26,06,34,0.60
2008,04,26,06,35,0.60
2008,04,26,06,36,0.60
2008,04,26,06,37,0.70
2008,04,26,06,38,0.70
2008,04,26,06,39,0.70
2008,04,26,06,40,0.80
2008,04,26,06,41,0.80
2008,04,26,06,42,0.80
2008,04,26,06,43,0.90
2008,04,26,06,44,0.90
2008,04,26,06,45,0.90
2008,04,26,06,46,0.90
2008,04,26,06,47,1.00
2008,04,26,06,48,1.00
2008,04,26,06,49,1.10
2008,04,26,06,50,1.10
2008,04,26,06,51,1.10
2008,04,26,06,52,1.20
2008,04,26,06,53,1.20
2008,04,26,06,54,1.20
2008,04,26,06,55,1.30
2008,04,26,06,56,1.30
2008,04,26,06,57,1.30
2008,04,26,06,58,1.30
2008,04,26,06,59,1.30
2008,04,26,07,00,1.30
2008,04,26,07,01,1.30
2008,04,26,07,02,1.40
2008,04,26,07,03,1.40
2008,04,26,07,04,1.50
2008,04,26,07,05,1.50
2008,04,26,07,06,1.60
2008,04,26,07,07,1.60
2008,04,26,07,08,1.60
2008,04,26,07,09,1.60
2008,04,26,07,10,1.70
2008,04,26,07,11,1.70
2008,04,26,07,12,1.70
2008,04,26,07,13,1.80
2008,04,26,07,14,1.80
2008,04,26,07,15,1.80
2008,04,26,07,16,1.80
2008,04,26,07,17,1.80
2008,04,26,07,18,1.90
2008,04,26,07,19,1.90
2008,04,26,07,20,1.90
2008,04,26,07,21,2.00
2008,04,26,07,22,2.10
2008,04,26,07,23,2.10
2008,04,26,07,24,2.10
2008,04,26,07,25,2.20
2008,04,26,07,26,2.20
2008,04,26,07,27,2.30
2008,04,26,07,28,2.40
2008,04,26,07,29,2.50
2008,04,26,07,30,2.60
2008,04,26,07,31,2.70
2008,04,26,07,32,2.70
2008,04,26,07,33,2.80
2008,04,26,07,34,2.90
2008,04,26,07,35,2.90
2008,04,26,07,36,3.00
2008,04,26,07,37,3.10
2008,04,26,07,38,3.20
2008,04,26,07,39,3.20
2008,04,26,07,40,3.30
2008,04,26,07,41,3.30
2008,04,26,07,42,3.40
2008,04,26,07,43,3.50
2008,04,26,07,44,3.50
2008,04,26,07,45,3.60
2008,04,26,07,46,3.70
2008,04,26,07,47,3.70
2008,04,26,07,48,3.80
2008,04,26,07,49,3.90
2008,04,26,07,50,4.00
2008,04,26,07,51,4.10
2008,04,26,07,52,4.20
2008,04,26,07,53,4.20
2008,04,26,07,54,4.40
2008,04,26,07,55,4.50
2008,04,26,07,56,4.70
2008,04,26,07,57,4.80
2008,04,26,07,58,5.00
2008,04,26,07,59,5.10
2008,04,26,08,00,5.30
2008,04,26,08,01,5.40
2008,04,26,08,02,5.50
2008,04,26,08,03,5.60
2008,04,26,08,04,5.60
2008,04,26,08,05,5.60
2008,04,26,08,06,5.60
2008,04,26,08,07,5.60
2008,04,26,08,08,5.60
2008,04,26,08,09,6.10
2008,04,26,08,10,6.30
2008,04,26,08,11,6.30
2008,04,26,08,12,6.40
2008,04,26,08,13,6.40
2008,04,26,08,14,6.40
2008,04,26,08,15,6.50
2008,04,26,08,16,6.60
2008,04,26,08,17,6.60
2008,04,26,08,18,6.70
2008,04,26,08,19,6.70
2008,04,26,08,20,6.80
2008,04,26,08,21,6.80
2008,04,26,08,22,6.90
2008,04,26,08,23,7.00
2008,04,26,08,24,7.10
2008,04,26,08,25,7.20
2008,04,26,08,26,7.20
2008,04,26,08,27,7.30
2008,04,26,08,28,7.30
2008,04,26,08,29,7.30
2008,04,26,08,30,7.40
2008,04,26,08,31,7.50
2008,04,26,08,32,7.60
2008,04,26,08,33,7.60
2008,04,26,08,34,7.70
2008,04,26,08,35,7.80
2008,04,26,08,36,7.80
2008,04,26,08,37,7.80
2008,04,26,08,38,7.90
2008,04,26,08,39,7.90
2008,04,26,08,40,8.00
2008,04,26,08,41,8.00
2008,04,26,08,42,8.10
2008,04,26,08,43,8.10
2008,04,26,08,44,8.10
2008,04,26,08,45,8.20
2008,04,26,08,46,8.20
2008,04,26,08,47,8.20
2008,04,26,08,48,8.30
2008,04,26,08,49,8.30
2008,04,26,08,50,8.30
2008,04,26,08,51,8.40
2008,04,26,08,52,8.40
2008,04,26,08,53,8.40
2008,04,26,08,54,8.40
2008,04,26,08,55,8.40
2008,04,26,08,56,8.50
2008,04,26,08,57,8.50
2008,04,26,08,58,8.60
2008,04,26,08,59,8.60
2008,04,26,09,00,8.60
2008,04,26,09,01,8.60
2008,04,26,09,02,8.60
2008,04,26,09,03,8.60
2008,04,26,09,04,8.70
2008,04,26,09,05,8.70
2008,04,26,09,06,8.70
2008,04,26,09,07,8.70
2008,04,26,09,08,8.70
2008,04,26,09,09,8.80
2008,04,26,09,10,8.80
2008,04,26,09,11,8.80
2008,04,26,09,12,8.80
2008,04,26,09,13,8.80
2008,04,26,09,14,8.80
2008,04,26,09,15,8.90
2008,04,26,09,16,8.90
2008,04,26,09,17,9.00
2008,04,26,09,18,9.00
2008,04,26,09,19,9.00
2008,04,26,09,20,9.00
2008,04,26,09,21,9.00
2008,04,26,09,22,9.00
2008,04,26,09,23,9.10
2008,04,26,09,24,9.20
2008,04,26,09,25,9.20
2008,04,26,09,26,9.40
2008,04,26,09,27,9.40
2008,04,26,09,28,9.50
2008,04,26,09,29,9.50
2008,04,26,09,30,9.50
2008,04,26,09,31,9.50
2008,04,26,09,32,9.50
2008,04,26,09,33,9.50
2008,04,26,09,34,9.50
2008,04,26,09,35,9.50
2008,04,26,09,36,9.50
2008,04,26,09,37,9.50
2008,04,26,09,38,9.60
2008,04,26,09,39,9.70
2008,04,26,09,40,9.70
2008,04,26,09,41,9.70
2008,04,26,09,42,9.70
2008,04,26,09,43,9.70
2008,04,26,09,44,9.80
2008,04,26,09,45,9.80
2008,04,26,09,46,9.90
2008,04,26,09,47,9.90
2008,04,26,09,48,9.90
2008,04,26,09,49,9.80
2008,04,26,09,50,9.80
2008,04,26,09,51,9.80
2008,04,26,09,52,9.70
2008,04,26,09,53,9.70
2008,04,26,09,54,9.70
2008,04,26,09,55,9.70
2008,04,26,09,56,9.70
2008,04,26,09,57,9.70
2008,04,26,09,58,9.70
2008,04,26,09,59,9.70
2008,04,26,10,00,9.70
2008,04,26,10,01,9.70
2008,04,26,10,02,9.60
2008,04,26,10,03,9.60
2008,04,26,10,04,9.60
2008,04,26,10,05,9.60
2008,04,26,10,06,9.60
2008,04,26,10,07,9.60
2008,04,26,10,08,9.60
2008,04,26,10,09,9.60
2008,04,26,10,10,9.60
2008,04,26,10,11,9.60
2008,04,26,10,12,9.60
2008,04,26,10,13,9.70
2008,04,26,10,14,9.80
2008,04,26,10,15,9.80
2008,04,26,10,16,9.80
2008,04,26,10,17,9.80
2008,04,26,10,18,9.90
2008,04,26,10,19,9.90
2008,04,26,10,20,9.90
2008,04,26,10,21,9.90
2008,04,26,10,22,9.90
2008,04,26,10,23,10.00
2008,04,26,10,24,10.10
2008,04,26,10,25,10.10
2008,04,26,10,26,10.10
2008,04,26,10,27,10.10
2008,04,26,10,28,10.20
2008,04,26,10,29,10.10
2008,04,26,10,30,10.10
2008,04,26,10,31,10.20
2008,04,26,10,32,10.20
2008,04,26,10,33,10.20
2008,04,26,10,34,10.10
2008,04,26,10,35,10.10
2008,04,26,10,36,10.10
2008,04,26,10,37,10.10
2008,04,26,10,38,10.20
2008,04,26,10,39,10.20
2008,04,26,10,40,10.30
2008,04,26,10,41,10.30
2008,04,26,10,42,10.30
2008,04,26,10,43,10.40
2008,04,26,10,44,10.40
2008,04,26,10,45,10.40
2008,04,26,10,46,10.60
2008,04,26,10,47,10.60
2008,04,26,10,48,10.70
2008,04,26,10,49,10.80
2008,04,26,10,50,10.80
2008,04,26,10,51,10.80
2008,04,26,10,52,10.70
2008,04,26,10,53,10.70
2008,04,26,10,54,10.70
2008,04,26,10,55,10.70
2008,04,26,10,56,10.80
2008,04,26,10,57,10.90
2008,04,26,10,58,10.90
2008,04,26,10,59,11.10
2008,04,26,11,00,11.10
2008,04,26,11,01,11.10
2008,04,26,11,02,11.10
2008,04,26,11,03,11.00
2008,04,26,11,04,11.00
2008,04,26,11,05,11.10
2008,04,26,11,06,11.10
2008,04,26,11,07,11.10
2008,04,26,11,08,11.10
2008,04,26,11,09,11.10
2008,04,26,11,10,11.10
2008,04,26,11,11,11.40
2008,04,26,11,12,11.40
2008,04,26,11,13,11.40
2008,04,26,11,14,11.40
2008,04,26,11,15,11.50
2008,04,26,11,16,11.60
2008,04,26,11,17,11.70
2008,04,26,11,18,11.60
2008,04,26,11,19,11.60
2008,04,26,11,20,11.60
2008,04,26,11,21,11.60
2008,04,26,11,22,11.70
2008,04,26,11,23,11.80
2008,04,26,11,24,11.80
2008,04,26,11,25,11.80
2008,04,26,11,26,11.80
2008,04,26,11,27,11.90
2008,04,26,11,28,11.90
2008,04,26,11,29,12.00
2008,04,26,11,30,12.10
2008,04,26,11,31,12.10
2008,04,26,11,32,12.10
2008,04,26,11,33,12.10
2008,04,26,11,34,12.10
2008,04,26,11,35,12.10
2008,04,26,11,36,12.10
2008,04,26,11,37,12.00
2008,04,26,11,38,12.00
2008,04,26,11,39,12.00
2008,04,26,11,40,12.10
2008,04,26,11,41,12.20
2008,04,26,11,42,12.30
2008,04,26,11,43,12.30
2008,04,26,11,44,12.30
2008,04,26,11,45,12.30
2008,04,26,11,46,12.30
2008,04,26,11,47,12.30
2008,04,26,11,48,12.30
2008,04,26,11,49,12.30
2008,04,26,11,50,12.30
2008,04,26,11,51,12.30
2008,04,26,11,52,12.30
2008,04,26,11,53,12.20
2008,04,26,11,54,12.20
2008,04,26,11,55,12.20
2008,04,26,11,56,12.20
2008,04,26,11,57,12.20
2008,04,26,11,58,12.30
2008,04,26,11,59,12.20
2008,04,26,12,00,12.20
2008,04,26,12,01,12.20
2008,04,26,12,02,12.20
2008,04,26,12,03,12.30
2008,04,26,12,04,12.30
2008,04,26,12,05,12.30
2008,04,26,12,06,12.30
2008,04,26,12,07,12.30
2008,04,26,12,08,12.30
2008,04,26,12,09,12.30
2008,04,26,12,10,12.30
2008,04,26,12,11,12.30
2008,04,26,12,12,12.30
2008,04,26,12,13,12.40
2008,04,26,12,14,12.40
2008,04,26,12,15,12.40
2008,04,26,12,16,12.40
2008,04,26,12,17,12.40
2008,04,26,12,18,12.40
2008,04,26,12,19,12.40
2008,04,26,12,20,12.40
2008,04,26,12,21,12.60
2008,04,26,12,22,12.80
2008,04,26,12,23,12.80
2008,04,26,12,24,12.90
2008,04,26,12,25,12.90
2008,04,26,12,26,13.00
2008,04,26,12,27,13.10
2008,04,26,12,28,13.20
2008,04,26,12,29,13.10
2008,04,26,12,30,13.20
2008,04,26,12,31,13.20
2008,04,26,12,32,13.20
2008,04,26,12,33,13.20
2008,04,26,12,34,13.20
2008,04,26,12,35,13.20
2008,04,26,12,36,13.20
2008,04,26,12,37,13.20
2008,04,26,12,38,13.30
2008,04,26,12,39,13.30
2008,04,26,12,40,13.40
2008,04,26,12,41,13.40
2008,04,26,12,42,13.40
2008,04,26,12,43,13.30
2008,04,26,12,44,13.20
2008,04,26,12,45,13.30
2008,04,26,12,46,13.20
2008,04,26,12,47,13.00
2008,04,26,12,48,12.90
2008,04,26,12,49,13.00
2008,04,26,12,50,13.00
2008,04,26,12,51,12.90
2008,04,26,12,52,12.90
2008,04,26,12,53,12.90
2008,04,26,12,54,12.90
2008,04,26,12,55,12.90
2008,04,26,12,56,13.50
2008,04,26,12,57,13.60
2008,04,26,12,58,13.70
2008,04,26,12,59,13.70
2008,04,26,13,00,13.80
2008,04,26,13,01,13.70
2008,04,26,13,02,13.50
2008,04,26,13,03,13.30
2008,04,26,13,04,13.30
2008,04,26,13,05,13.30
2008,04,26,13,06,13.30
2008,04,26,13,07,13.40
2008,04,26,13,08,13.50
2008,04,26,13,09,13.60
2008,04,26,13,10,13.70
2008,04,26,13,11,13.80
2008,04,26,13,12,14.00
2008,04,26,13,13,14.00
2008,04,26,13,14,14.00
2008,04,26,13,15,14.00
2008,04,26,13,16,13.90
2008,04,26,13,17,13.80
2008,04,26,13,18,13.70
2008,04,26,13,19,13.70
2008,04,26,13,20,13.70
2008,04,26,13,21,13.90
2008,04,26,13,22,13.90
2008,04,26,13,23,13.90
2008,04,26,13,24,13.90
2008,04,26,13,25,13.90
2008,04,26,13,26,13.80
2008,04,26,13,27,13.80
2008,04,26,13,28,13.80
2008,04,26,13,29,13.90
2008,04,26,13,30,13.90
2008,04,26,13,31,13.90
2008,04,26,13,32,13.90
2008,04,26,13,33,13.90
2008,04,26,13,34,14.00
2008,04,26,13,35,14.00
2008,04,26,13,36,13.90
2008,04,26,13,37,13.90
2008,04,26,13,38,13.90
2008,04,26,13,39,14.00
2008,04,26,13,40,14.10
2008,04,26,13,41,14.10
2008,04,26,13,42,14.20
2008,04,26,13,43,14.30
2008,04,26,13,44,14.30
2008,04,26,13,45,14.30
2008,04,26,13,46,14.30
2008,04,26,13,47,14.30
2008,04,26,13,48,14.20
2008,04,26,13,49,14.10
2008,04,26,13,50,14.00
2008,04,26,13,51,13.90
2008,04,26,13,52,13.80
2008,04,26,13,53,13.70
2008,04,26,13,54,13.60
2008,04,26,13,55,13.60
2008,04,26,13,56,13.50
2008,04,26,13,57,13.40
2008,04,26,13,58,13.40
2008,04,26,13,59,13.50
2008,04,26,14,00,13.60
2008,04,26,14,01,13.70
2008,04,26,14,02,13.70
2008,04,26,14,03,13.70
2008,04,26,14,04,13.60
2008,04,26,14,05,13.50
2008,04,26,14,06,13.40
2008,04,26,14,07,13.40
2008,04,26,14,08,13.40
2008,04,26,14,09,13.50
2008,04,26,14,10,13.60
2008,04,26,14,11,13.70
2008,04,26,14,12,13.80
2008,04,26,14,13,13.90
2008,04,26,14,14,14.00
2008,04,26,14,15,14.10
2008,04,26,14,16,14.20
2008,04,26,14,17,14.20
2008,04,26,14,18,14.20
2008,04,26,14,19,14.30
2008,04,26,14,20,14.30
2008,04,26,14,21,14.20
2008,04,26,14,22,14.30
2008,04,26,14,23,14.20
2008,04,26,14,24,14.20
2008,04,26,14,25,14.20
2008,04,26,14,26,14.10
2008,04,26,14,27,14.10
2008,04,26,14,28,14.10
2008,04,26,14,29,14.10
2008,04,26,14,30,14.00
2008,04,26,14,31,14.00
2008,04,26,14,32,14.00
2008,04,26,14,33,14.00
2008,04,26,14,34,14.00
2008,04,26,14,35,14.10
2008,04,26,14,36,14.10
2008,04,26,14,37,14.00
2008,04,26,14,38,14.00
2008,04,26,14,39,14.00
2008,04,26,14,40,14.10
2008,04,26,14,41,14.20
2008,04,26,14,42,14.30
2008,04,26,14,43,14.40
2008,04,26,14,44,14.50
2008,04,26,14,45,14.50
2008,04,26,14,46,14.50
2008,04,26,14,47,14.50
2008,04,26,14,48,14.50
2008,04,26,14,49,14.60
2008,04,26,14,50,14.70
2008,04,26,14,51,14.80
2008,04,26,14,52,14.80
2008,04,26,14,53,14.70
2008,04,26,14,54,14.60
2008,04,26,14,55,14.50
2008,04,26,14,56,14.50
2008,04,26,14,57,14.40
2008,04,26,14,58,14.40
2008,04,26,14,59,14.40
2008,04,26,15,00,14.40
2008,04,26,15,01,14.40
2008,04,26,15,02,14.40
2008,04,26,15,03,14.50
2008,04,26,15,04,14.50
2008,04,26,15,05,14.60
2008,04,26,15,06,14.60
2008,04,26,15,07,14.70
2008,04,26,15,08,14.70
2008,04,26,15,09,14.80
2008,04,26,15,10,14.80
2008,04,26,15,11,14.80
2008,04,26,15,12,14.90
2008,04,26,15,13,14.90
2008,04,26,15,14,14.90
2008,04,26,15,15,14.90
2008,04,26,15,16,14.90
2008,04,26,15,17,14.90
2008,04,26,15,18,14.90
2008,04,26,15,19,14.90
2008,04,26,15,20,14.80
2008,04,26,15,21,14.80
2008,04,26,15,22,14.90
2008,04,26,15,23,15.00
2008,04,26,15,24,15.00
2008,04,26,15,25,15.10
2008,04,26,15,26,15.10
2008,04,26,15,27,15.20
2008,04,26,15,28,15.20
2008,04,26,15,29,15.20
2008,04,26,15,30,15.20
2008,04,26,15,31,15.20
2008,04,26,15,32,15.20
2008,04,26,15,33,15.20
2008,04,26,15,34,15.20
2008,04,26,15,35,15.10
2008,04,26,15,36,15.10
2008,04,26,15,37,15.10
2008,04,26,15,38,15.10
2008,04,26,15,39,15.10
2008,04,26,15,40,15.10
2008,04,26,15,41,15.10
2008,04,26,15,42,15.10
2008,04,26,15,43,15.10
2008,04,26,15,44,15.10
2008,04,26,15,45,15.10
2008,04,26,15,46,15.10
2008,04,26,15,47,15.10
2008,04,26,16,20,15.80
2008,04,26,16,21,15.80
2008,04,26,16,22,15.80
2008,04,26,16,23,15.80
2008,04,26,16,24,15.80
2008,04,26,16,25,15.80
2008,04,26,16,26,15.70
2008,04,26,16,27,15.70
2008,04,26,16,28,15.60
2008,04,26,16,29,15.50
2008,04,26,16,30,15.50
2008,04,26,16,31,15.50
2008,04,26,16,32,15.50
2008,04,26,16,33,15.60
2008,04,26,16,34,15.60
2008,04,26,16,35,15.70
2008,04,26,16,36,15.70
2008,04,26,16,37,15.80
2008,04,26,16,38,15.80
2008,04,26,16,39,15.70
2008,04,26,16,40,15.70
2008,04,26,16,41,15.80
2008,04,26,16,42,15.80
2008,04,26,16,43,15.70
2008,04,26,16,44,15.60
2008,04,26,16,45,15.60
2008,04,26,16,46,15.50
2008,04,26,16,47,15.50
2008,04,26,16,48,15.50
2008,04,26,16,49,15.50
2008,04,26,16,50,15.50
2008,04,26,16,51,15.50
2008,04,26,16,52,15.50
2008,04,26,16,53,15.50
2008,04,26,16,54,15.50
2008,04,26,16,55,15.50
2008,04,26,16,56,15.50
2008,04,26,16,57,15.50
2008,04,26,16,58,15.50
2008,04,26,16,59,15.50
2008,04,26,17,00,15.50
2008,04,26,17,01,15.50
2008,04,26,17,02,15.50
2008,04,26,17,03,15.50
2008,04,26,17,04,15.50
2008,04,26,17,05,15.50
2008,04,26,17,06,15.50
2008,04,26,17,07,15.40
2008,04,26,17,08,15.40
2008,04,26,17,09,15.40
2008,04,26,17,10,15.40
2008,04,26,17,11,15.40
2008,04,26,17,12,15.40
2008,04,26,17,13,15.40
2008,04,26,17,14,15.40
2008,04,26,17,15,15.40
2008,04,26,17,16,15.40
2008,04,26,17,17,15.50
2008,04,26,17,18,15.50
2008,04,26,17,19,15.50
2008,04,26,17,20,15.50
2008,04,26,17,21,15.40
2008,04,26,17,22,15.40
2008,04,26,17,23,15.40
2008,04,26,17,24,15.40
2008,04,26,17,25,15.40
2008,04,26,17,26,15.40
2008,04,26,17,27,15.50
2008,04,26,17,28,15.50
2008,04,26,17,29,15.50
2008,04,26,17,30,15.50
2008,04,26,17,31,15.50
2008,04,26,17,32,15.50
2008,04,26,17,33,15.50
2008,04,26,17,34,15.50
2008,04,26,17,35,15.50
2008,04,26,17,36,15.50
2008,04,26,17,37,15.50
2008,04,26,17,38,15.50
2008,04,26,17,39,15.50
2008,04,26,17,40,15.60
2008,04,26,17,41,15.60
2008,04,26,17,42,15.60
2008,04,26,17,43,15.60
2008,04,26,17,44,15.50
2008,04,26,17,45,15.50
2008,04,26,17,46,15.50
2008,04,26,17,47,15.50
2008,04,26,17,48,15.50
2008,04,26,17,49,15.50
2008,04,26,17,50,15.50
2008,04,26,17,51,15.40
2008,04,26,17,52,15.40
2008,04,26,17,53,15.30
2008,04,26,17,54,15.30
2008,04,26,17,55,15.20
2008,04,26,17,56,15.20
2008,04,26,17,57,15.20
2008,04,26,17,58,15.20
2008,04,26,17,59,15.20
2008,04,26,18,00,15.20
2008,04,26,18,01,15.20
2008,04,26,18,02,15.10
2008,04,26,18,03,15.10
2008,04,26,18,04,15.10
2008,04,26,18,05,15.00
2008,04,26,18,06,15.10
2008,04,26,18,07,15.10
2008,04,26,18,08,15.10
2008,04,26,18,09,15.10
2008,04,26,18,10,15.10
2008,04,26,18,11,15.10
2008,04,26,18,12,15.10
2008,04,26,18,13,15.10
2008,04,26,18,14,15.00
2008,04,26,18,15,15.00
2008,04,26,18,16,14.90
2008,04,26,18,17,14.90
2008,04,26,18,18,14.90
2008,04,26,18,19,14.80
2008,04,26,18,20,14.80
2008,04,26,18,21,14.80
2008,04,26,18,22,14.80
2008,04,26,18,23,14.80
2008,04,26,18,24,14.90
2008,04,26,18,25,14.90
2008,04,26,18,26,14.90
2008,04,26,18,27,14.90
2008,04,26,18,28,14.90
2008,04,26,18,29,15.00
2008,04,26,18,30,15.00
2008,04,26,18,31,14.90
2008,04,26,18,32,14.90
2008,04,26,18,33,14.90
2008,04,26,18,34,14.90
2008,04,26,18,35,14.90
2008,04,26,18,36,14.80
2008,04,26,18,37,14.80
2008,04,26,18,38,14.80
2008,04,26,18,39,14.80
2008,04,26,18,40,14.80
2008,04,26,18,41,14.80
2008,04,26,18,42,14.70
2008,04,26,18,43,14.70
2008,04,26,18,44,14.60
2008,04,26,18,45,14.60
2008,04,26,18,46,14.60
2008,04,26,18,47,14.60
2008,04,26,18,48,14.60
2008,04,26,18,49,14.60
2008,04,26,18,50,14.60
2008,04,26,18,51,14.60
2008,04,26,18,52,14.60
2008,04,26,18,53,14.60
2008,04,26,18,54,14.60
2008,04,26,18,55,14.60
2008,04,26,18,56,14.60
2008,04,26,18,57,14.60
2008,04,26,18,58,14.60
2008,04,26,18,59,14.60
2008,04,26,19,00,14.60
2008,04,26,19,01,14.60
2008,04,26,19,02,14.60
2008,04,26,19,03,14.60
2008,04,26,19,04,14.60
2008,04,26,19,05,14.60
2008,04,26,19,06,14.60
2008,04,26,19,07,14.60
2008,04,26,19,08,14.60
2008,04,26,19,09,14.50
2008,04,26,19,10,14.50
2008,04,26,19,11,14.50
2008,04,26,19,12,14.50
2008,04,26,19,13,14.50
2008,04,26,19,14,14.50
2008,04,26,19,15,14.50
2008,04,26,19,16,14.50
2008,04,26,19,17,14.50
2008,04,26,19,18,14.50
2008,04,26,19,19,14.50
2008,04,26,19,20,14.50
2008,04,26,19,21,14.50
2008,04,26,19,22,14.40